COSMOS 2251 DEB, 36045

Orbit data source: Space-Track

COSMOS 2251 DEB, 36045 is space debris in LEO originally from a launch on Wed, 16 Jun 1993 UTC launched from the Plesetsk Missile And Space Complex (PKMTR). The debris from Iridium 33, an American commercial communications satellite, has been tracked extensively since its accidental collision with the defunct Russian satellite Cosmos 2251 in 2009. This event, occurring at high speed in low Earth orbit (LEO), generated thousands of pieces of space debris, significantly increasing the risk of further collisions. The Iridium 33 debris cloud has impacted space traffic management and orbital debris mitigation strategies, making it a subject of ongoing study in space situational awareness.

Loading next visibility...
Identifier
36045, 1993-036AXG
Orbit
LEO
Country
Flag of CISCIS
Related business
Manufacturer
Unknown
Mission
Spacecraft
Bus & Motor
Unknown
Mass
Unknown
Launch date (UTC)
1993-06-16 (33 years ago)
Launch vehicle
Unknown
Launch site
Plesetsk Missile And Space Complex (PKMTR)
Object type
Payload
Rocket body
Debris
Shape & HBR
Unknown shape, 0.1 m
Radar Cross Section
Small (<0.1 m²)

Expand to show TLE details & history
Last TLE update: 3 days ago

TLE from 3 days ago
0 COSMOS 2251 DEB
1 36045U 93036AXG 26032.06139723  .00014197  00000-0  22468-2 0  9999
2 36045  73.7661 319.8113 0048714 323.8141  35.9736 14.71492541 91283
Epoch: 2026-02-01T01:28Z
TLE epoch observation values (Epoch: 2026-02-01T01:28:24.720Z)
Latitude
-0°
Longitude
166.43186°
Altitude
631.267 km
Speed
7.558 km/s
True Right ascension
21h 19m 14s
True Declination
0° 00' 00"
Sunlit
Object was in daylight at epoch
Visualization orbit readout
Latitude
Unknown
Longitude
Unknown
Altitude
Unknown
Speed
Unknown
Apparent Right ascension
Unknown
Apparent Declination
Unknown
Sunlit
N/A
Visualization observer readout
Local Sidereal Time
03:12:16
Azimuth
Unknown
Elevation
Unknown
Doppler factor
Unknown
Orbital elements
Apogee altitude
688.172 km
Perigee altitude
619.66 km
Semi-major axis
7,032.053 km
Eccentricity
0.00487
Inclination
73.7661°
RAAN
319.8113°
Arg. of periapsis
323.8141°
True anomaly
36.30313°
Mean anomaly
35.9736°
Eccentric anomaly
36.1382°
Mean motion
3.68061 °/min
Orbital period
97.81 mins
BSTAR
0.0022468
Loading maneuver chart data...
Computing Atmospheric mass density...

Documentation

Showing up to 5 results
|